Location: *
(49.1466°N, 1.6216°E)
Time: 19:57:41
(UTC+00:00)

IRS-1C Rocket - Pass Details

Date: 25 September 2023
Orbit: 801 x 805 km, 98.8° (Epoch: 10 December)

Event Time Altitude Azimuth Distance (km) Brightness Sun altitude
Exits shadow 20:22:46 64° 175° (S) 890 4.1 -25.4°
Maximum altitude 20:23:37 85° 254° (WSW) 812 4.0 -25.5°
Drops below altitude 10° 20:28:55 10° 344° (NNW) 2,389 7.1 -26.2°
Sets 20:31:16 0° 345° (NNW) 3,324 8.0 -26.5°
